Regional Weather Roundup
Issued by NWS Cleveland, OH

Home | Current Version | Previous Version | Text Only | Print | Product List | Glossary Off
Versions: 1 2 3 4 5 6 7 8 9 10 11 12 13 14 15 16 17 18 19 20 21 22 23 24 25 26 27 28 29 30 31 32 33 34 35 36 37 38 39 40 41 42 43 44 45 46 47 48 49 50

000
ASUS41 KCLE 310402
RWRCLE
OHIO REGIONAL WEATHER ROUNDUP
NATIONAL WEATHER SERVICE CLEVELAND, OH
1200 AM EDT SUN AUG 31 2014

NOTE: "FAIR" INDICATES FEW OR NO CLOUDS BELOW 12,000 FEET WITH NO
SIGNIFICANT WEATHER AND/OR OBSTRUCTIONS TO VISIBILITY.

OHZ001>008-015>018-024>027-034-035-043-044-310500-
   NORTHWEST OHIO

CITY           SKY/WX    TMP DP  RH WIND       PRES   REMARKS
DEFIANCE       CLOUDY    76  69  79 SW8       29.97R
FINDLAY        CLOUDY    76  69  79 SW10      29.98S
TOLEDO EXPRESS CLOUDY    76  68  76 SW10G23   29.96R
TOLEDO EXEC    CLOUDY    77  68  73 SW12      29.97R
LIMA           CLOUDY    76  68  76 SW9       30.00S
$$

OHZ009>014-019>023-028>033-038-089-310500-
   NORTHEAST OHIO

CITY           SKY/WX    TMP DP  RH WIND       PRES   REMARKS
CLE-HOPKINS    CLOUDY    77  67  71 SW9       30.01R
CLE-LAKEFRONT  CLOUDY    81  67  62 S17       29.96S
CUY CO. ARPT   NOT AVBL
LORAIN-ELYRIA  CLOUDY    80  67  64 SW10      30.00R
ASHTABULA      CLOUDY    78  66  66 S10       30.00S
AKRON-CANTON   LGT RAIN  79  65  62 SW14      30.03S
WOOSTER        CLOUDY    76  65  68 SW9       30.03F
MANSFIELD      CLOUDY    75  66  73 SW14G20   30.04R
YOUNGSTOWN     LGT RAIN  75  66  73 SW9       30.02F
$$

OHZ042-051>053-060>062-070>072-077>081-310500-
  SOUTHWEST OHIO

CITY           SKY/WX    TMP DP  RH WIND       PRES   REMARKS
CINC-COVINGTON CLOUDY    71  68  90 S9        30.05S FOG
CINC-LUNKEN    CLOUDY    70  69  97 S6        30.06R
HAMILTON       CLOUDY    72  71  97 CALM      30.05S
DAYTON         CLOUDY    74  68  81 SW9       30.05S
WRIGHT-PAT AFB CLOUDY    73  69  85 S7        30.04S
DAYTON GENERAL CLOUDY    72  69  90 S8        30.04F
WILMINGTON     RAIN      69  68  96 SW7       30.06S FOG
$$

OHZ036-037-039>041-045>050-054>059-063>069-073>076-082>088-310500-
  CENTRAL AND SOUTHEAST OHIO

CITY           SKY/WX    TMP DP  RH WIND       PRES   REMARKS
COLUMBUS       CLOUDY    77  67  71 SW7       30.04S
OSU AIRPORT    CLOUDY    75  67  76 SW12      30.04S
BOLTON FIELD   LGT RAIN  72  69  92 W5        30.05S
RICKENBACK AFB LGT RAIN  74  66  76 SW5       30.04S
NEWARK         CLOUDY    74  67  78 S3        30.04S
MARION         CLOUDY    74  68  81 SW10      30.03R
LANCASTER      CLOUDY    74  68  81 SW3       30.05S
ZANESVILLE     CLOUDY    76  66  71 SW3       30.05R
NEW PHILLY     LGT RAIN  77  68  73 SW5       30.04S
$$



USA.gov is the U.S. government's official web portal to all federal, state and local government web resources and services.